Main page
METAR-TAF:

METAR-TAF

Airports :

Songea Airport

Songea, Tanzania

latitude: 10-41S, longitude: 035-35E, elevation: 1067 m

Current weather observation

The report was made 7 hours and 27 minutes ago, at 09:00 UTC
Wind 5 kt from the South/Southeast
Temperature 22°C
Humidity 46%
Pressure 1024 hPa
Visibility 10 km or more
Scattered clouds at a height of 1900 ft

METAR: HTSO 150900Z 16005KT 9999 SCT019 22/10 Q1024

Time: 19:27 (16:27 UTC)


TAF: missing

Weather observations and forecasts of more than 4000 airports (METAR and TAF reports).

The available stations are represented by yellow and red dots on the map.

Hover mouse over dot to see the name of the station.

Then click to see weather observations and forecasts.

To change the map : click on the green buttons with a black cross to zoom in, on the green button with a dash to zoom out, or on the green arrows for adjacent maps.


METAR-TAF: